Print

CHIHRRCWA 000
TTAA00 KDVN 012104
HOURLY WEATHER ROUNDUP
NATIONAL WEATHER SERVICE QUAD CITIES IA IL
300 PM CST SUN FEB 01 2015

Note: "Fair" indicates few or no clouds below 12,000 feet with no
significant weather and/or obstructions to visibility.

* - These stations are not NWS stations...and not subject to NWS
quality control.  Some stations do not report weather such as fog.

...NORTHEAST IOWA..................................................

  
CITY           SKY/WX    TMP DP  RH WIND       PRES   REMARKS
DECORAH *      LGT SNOW  14   9  79 N17G31    30.00R WCI  -3          
WATERLOO       LGT SNOW  16  12  84 N25       29.98R VSB 3/4 WCI  -3  
OELWEIN *      SNOW      16  12  86 N24G32    29.95R VSB 1/2 WCI  -3  
INDEPENDENCE * LGT SNOW  18  14  86 N28G35    29.93R VSB 3/4 WCI  -1  
DUBUQUE        FOG       16  12  84 NE25G36   29.86R VSB 1/2 WCI  -3  

...SOUTHWEST AND SOUTH CENTRAL WISCONSIN...........................

  
CITY           SKY/WX    TMP DP  RH WIND       PRES   REMARKS
PRAIRIE DU CHI MIX PCPN  17  10  72 N9        30.00R WCI   6          
BOSCOBEL       LGT SNOW  16   9  74 NE15G29   30.00S WCI   1          
LONE ROCK      LGT SNOW  15   8  73 N15G23    29.99S VSB 1   WCI   0  
MINERAL POINT* NOT AVBL                                               
MONROE *       NOT AVBL                                               
JANESVILLE *   LGT SNOW  23  18  80 NE22G28   29.85F VSB 1   WCI   8  

...EAST CENTRAL IOWA...............................................

  
CITY           SKY/WX    TMP DP  RH WIND       PRES   REMARKS
MARSHALLTOWN   FOG       17  13  84 N26G37    29.95R VSB 1/4 WCI  -2  
NEWTON *       NOT AVBL                                               
VINTON *       LGT SNOW  19  14  83 N17G23    29.93R VSB 1   WCI   3  
CEDAR RAPIDS   SNOW      18  16  92 N26G35    29.87R VSB 1/4 WCI  -1  
IOWA CITY      SNOW      20  16  84 N22G29    29.87R VSB 1/2 WCI   3  
MONTICELLO *   SNOW      18  14  86 N24G33    29.89R VSB 1/2 WCI   0  
CLINTON *      CLOUDY    19  18  93 NE24G33   29.83R VSB 1/4 WCI   2  
DAVENPORT      MIX PCPN  21  17  84 NE25      29.80R VSB 1/4 WCI   4  

...NORTHWEST ILLINOIS..............................................

  
CITY           SKY/WX    TMP DP  RH WIND       PRES   REMARKS
FREEPORT *     SNOW      18  15  88 N16G28    29.84S VSB 1/2 WCI   3  
ROCKFORD       SNOW      23  18  81 NE24G37   29.82F VSB 1/4 WCI   7  
SAVANNA *      LGT SNOW  20  16  83 N14       29.83R VSB 3/4 WCI   7  
STERLING/R.F.*   N/A    N/A N/A N/A MISG        N/A                   
ROCHELLE *     SNOW      22  20  92 NE25G32   29.76F VSB 1/2 WCI   6  
MOLINE         FOG       24  20  84 NE16G25   29.78R VSB 1/4 WCI  11  
PERU *         NOT AVBL                                               

...SOUTHEAST IOWA AND NORTHEAST MISSOURI...........................

  
CITY           SKY/WX    TMP DP  RH WIND       PRES   REMARKS
KNOXVILLE *    NOT AVBL                                               
OTTUMWA        SNOW      21  17  84 N20G31    29.86R VSB 1/2 WCI   6  
FAIRFIELD *    SNOW      21  18  86 N25G32    29.83R VSB 1/4 WCI   4  
WASHINGTON *   SNOW      21  21 100 N23G31    29.83R VSB 1/2 WCI   5  
MT PLEASANT *  LGT SNOW  22  21  94 N21G29    29.78R WCI   7          
BURLINGTON     LGT SNOW  26  23  88 NE23G30   29.74R VSB 3/4 WCI  11  
KIRKSVILLE     LGT SNOW  27  25  92 N23G32    29.77R FOG     WCI  12  

...WESTERN ILLINOIS................................................

  
CITY           SKY/WX    TMP DP  RH WIND       PRES   REMARKS
MACOMB *       LGT SNOW  28  26  94 N22G32    29.71R WCI  14          
GALESBURG *    SNOW      25  23  93 N25G35    29.71R VSB 1/2 WCI   9  
PEORIA         LGT SNOW  33  29  85 NE15G23   29.65R VSB 1   WCI  23  
QUINCY         LGT SNOW  33  31  92 N9        29.67R FOG     WCI  25  

END...
  

USA.gov is the U.S. government's official web portal to all federal, state and local government web resources and services.